SL-8 DEB *, 3045

Orbit data source: Space-Track

SL-8 DEB *, 3045 is space debris in LEO originally from a launch on Fri, 03 Sep 1965 UTC launched from the Tyuratam Missile And Space Complex (TTMTR). Debris objects in space refer to the collection of defunct objects orbiting the Earth. Examples of debris include non-operational satellites, rocket bodies, and fragments generated from explosions, collisions, or faulty payload assembly.

Loading next visibility...
Identifier
3045, 1965-070G
Orbit
LEO
Country
Flag of CISCIS
Related business
Manufacturer
Unknown
Mission
Spacecraft
Bus & Motor
Unknown
Mass
Unknown
Launch date (UTC)
1965-09-03 (61 years ago)
Launch vehicle
Unknown
Launch site
Tyuratam Missile And Space Complex (TTMTR)
Object type
Payload
Rocket body
Debris
Shape & HBR
Unknown shape, 0.075 m
Radar Cross Section
Medium (>0.1 m² and <1 m²)

Expand to show TLE details & history
Last TLE update: 8 hours ago

TLE from 8 hours ago
0 SL-8 DEB *
1 03045U 65070G   26267.20289396  .00000697  00000-0  47930-2 0  9999
2 03045  55.4311 331.5023 0291684 305.8881  83.5940 12.44664379701264
Epoch: 2026-09-24T04:52Z
TLE epoch observation values (Epoch: 2026-09-24T04:52:10.038Z)
Latitude
26.56759°
Longitude
-84.53056°
Altitude
1,469.298 km
Speed
7.14 km/s
True Right ascension
23h 26m 13s
True Declination
26° 26' 34"
Sunlit
Object was in full shadow at epoch
Visualization orbit readout
Latitude
Unknown
Longitude
Unknown
Altitude
Unknown
Speed
Unknown
Apparent Right ascension
Unknown
Apparent Declination
Unknown
Sunlit
N/A
Visualization observer readout
Local Sidereal Time
06:09:15
Azimuth
Unknown
Elevation
Unknown
Doppler factor
Unknown
Orbital elements
Apogee altitude
1,716.209 km
Perigee altitude
1,257.393 km
Semi-major axis
7,864.938 km
Eccentricity
0.02917
Inclination
55.4311°
RAAN
331.5023°
Arg. of periapsis
305.8881°
True anomaly
86.92727°
Mean anomaly
83.594°
Eccentric anomaly
85.25951°
Mean motion
3.11172 °/min
Orbital period
115.69 mins
BSTAR
0.004793
Loading maneuver chart data...
Computing Atmospheric mass density...
Loading historical data...
Loading historical data...
Loading historical data...
Loading historical data...
Loading historical data...
Loading historical data...
Loading historical data...
Other satellites on launch #70 in the year 1965 (1965-09-03 UTC)

Documentation

Showing up to 5 results
|